Sherpa UFF

operational
NORAD ID: 43763 Int'l Des: 2018-099 Owner: SFLIN Country: US
LEOCIRCULARRETROGRADESSO

Über Sherpa UFF

Beschreibung wird geladen...

Live-Position

3D-Globus wird geladen...

Nächste Überflüge

Höhenverlauf

Altitude vs Time

uPlot chart will show altitude changes over time

Zweizeiliger Elementsatz

1 43763U 18099F 26061.15312817 .00005363 00000-0 32752-3 0 9992
2 43763 97.4517 113.1095 0011877 318.3762 41.6563 15.10645911396389
Epoch: 2. März 2026 • Age: 32 hours

Aktueller Status

Höhe 556.1 km
Geschwindigkeit 7.59 km/s
Subsatellitenpunkt -81.06°S, 109.8°W
Startdatum 3. Dez. 2018
Alter 7.2 years
Typ other

Technische Details

Klassifizierung Payload
Masse 1072.00 kg
Trockenmasse 1072.00 kg
Gesamtmasse 2271.00 kg
Länge 3.10 m
Durchmesser 2.00 m
Spannweite 4.00 m
Form Cyl+Sail
Hersteller SFLIN
Bus-Typ SFL-UFF
Phasenstatus In Orbit
Besitzer/Staat SFLIN/US

Große Konstellationen

Loading constellations...